{"data":{"norad_id":68275,"intl_designator":"2026-055P","name":"STARLINK-37123","alt_names":[],"object_type":"PAYLOAD","status":"ACTIVE","operator":null,"country":"US","launch_date":"2026-03-19","launch_site_code":"AFETR","launch_vehicle":null,"mission":null,"orbit_class":"UNKNOWN","rcs_meters":null,"size_class":null,"mass_kg":null,"dimensions":null,"purposes":["comms"],"wikipedia_slug":null,"has_3d_model":false,"image_url":null,"decayed_at":null,"tle_current":{"epoch":"2026-09-19T22:30:17.224704Z","epoch_age_seconds":100820,"freshness":"FRESH","line1":"1 68275U 26055P   26262.93769936  .00010708  00000+0  32731-3 0  9990","line2":"2 68275  53.1569 132.5703 0001213 162.4250 197.6794 15.34427178 29733","mean_motion":15.34427178,"eccentricity":0.0001213,"inclination_deg":53.1569,"raan_deg":132.5703,"arg_perigee_deg":162.425,"mean_anomaly_deg":197.6794,"bstar":0.00032731,"rev_number":2973,"period_min":93.846095836032,"perigee_km":461.79267853309,"apogee_km":463.45224677873,"semimajor_km":6840.7594626559,"source":"CELESTRAK","updated_at":"2026-09-20T09:00:43.848582Z"}}}